Skip Page Navigation
NASA JPL Caltech
NASA Logo - Jet Propulsion Laboratory + View the NASA Portal
+ Near-Earth Object (NEO) Program
Search JPL
JPL Home Earth Solar System Stars & Galaxies Technology
JPL Solar System Dynamics
BODIES ORBITS EPHEMERIDES TOOLS PHYSICAL DATA DISCOVERY FAQ SITE MAP
JPL Small-Body Database Browser
Search: [ help ]  
5385 Kamenka (1975 TS3)
Classification: Main-belt Asteroid          SPK-ID: 2005385
Ephemeris | Orbit Diagram | Orbital Elements | Physical Parameters | Discovery Circumstances | Close-Approach Data ]

[ show orbit diagram ]
Orbital Elements at Epoch 2457000.5 (2014-Dec-09.0) TDB
Reference: JPL 7 (heliocentric ecliptic J2000)
 Element Value Uncertainty (1-sigma)   Units 
e .2333560385699344 8.5647e-08  
a 3.14555938695367 2.7747e-08 AU
q 2.41152410932769 2.6655e-07 AU
i 9.794985411206568 1.1212e-05 deg
node 41.46758820808079 3.7115e-05 deg
peri 301.7286415920532 4.2286e-05 deg
M 42.12310822777907 2.0932e-05 deg
tp 2456762.068753425497
(2014-Apr-14.56875343)
0.00011779 JED
period 2037.723529390812
5.58
2.6962e-05
7.382e-08
d
yr
n .1766677347577293 2.3376e-09 deg/d
Q 3.87959466457965 3.4222e-08 AU
  Orbit Determination Parameters
   # obs. used (total)      948  
   data-arc span      21813 days (59.72 yr)  
   first obs. used      1955-03-22  
   last obs. used      2014-12-10  
   planetary ephem.      DE431  
   SB-pert. ephem.      SB431-BIG16  
   condition code      0  
   fit RMS      .52797  
   data source      ORB  
   producer      Otto Matic  
   solution date      2015-Jan-08 00:11:52  

Additional Information
 Earth MOID = 1.42246 AU 
 T_jup = 3.144 
[ show covariance matrix ]

Ephemeris | Orbit Diagram | Orbital Elements | Physical Parameters | Discovery Circumstances | Close-Approach Data ]

Physical Parameter Table
Parameter Symbol Value Units Sigma Reference Notes
absolute magnitude H 12.2 mag n/a MPO313463  
rotation period rot_per 6.683 h n/a Asteroid Lightcurve DataBase (Rev. 2014-Mar-01) Result based on less than full coverage, so that the period may be wrong by 30 percent or so.
Published Reference List:
[Carbo, L.; Kragh, K.; Krotz, J.; Meiers, A.; et al. (2009) Minor Planet Bul. 36, 91-94.]

5385 Kamenka           Discovered 1975 Oct. 3 by L. I. Chernykh at the Crimean Astrophysical Observatory.
Kamenka, a small town in the Cherkassian region of Ukraine, is connected with many great persons of Russian culture and history, including Pushkin, Tchaikovsky and the Decembrists.
NOTE: some special characters may not display properly (any characters within {} are an attempt to place the proper accent above a character)
Reference: 20000124/MPCPages.arcLast Updated: 2013-03-29

[ show close-approach data ]
Alternate Designations
 1975 TS3 = 1975 UG = 1986 TY1 
Ephemeris | Orbit Diagram | Orbital Elements | Physical Parameters | Discovery Circumstances | Close-Approach Data ]
ABOUT SSD CREDITS/AWARDS PRIVACY/COPYRIGHT GLOSSARY LINKS
FirstGov 2015-Jan-27 08:22 UT
(server date/time)  
NASA Home Page
Site Manager:   Donald K. Yeomans
Webmaster  Alan B. Chamberlin